Observations for Trim Market St
| Time | AQI | Temp °C | Hum % | Pres Pa | CO μg/m³ | H₂S μg/m³ | NO μg/m³ | NO₂ μg/m³ | O₃ μg/m³ | SO₂ μg/m³ | PM1 μg/m³ | PM2.5 μg/m³ | PM10 μg/m³ |
|---|---|---|---|---|---|---|---|---|---|---|---|---|---|
| Sunday 23 August 2026 | |||||||||||||
| 06:32 | 2 | 13.6 | 69 | 56,775 | 0.39 | 0 | 1.92 | 7.57 | 50.67 | 0 | 0.71 | 2.12 | 5 |
| 06:31 | 2 | 13.6 | 69 | 56,777 | 0.38 | 0 | 2.08 | 7.57 | 50.9 | 0 | 0.71 | 2.61 | 4.37 |
| 06:26 | 2 | 13.6 | 69 | 56,781 | 0.37 | 0 | 2.32 | 7.44 | 51.19 | 0 | 1.43 | 2.61 | 5 |
| 06:22 | 2 | 13.6 | 69 | 56,739 | 0.37 | 0 | 2.13 | 7.44 | 50.95 | 0 | 1.43 | 3.1 | 5 |
| 06:20 | 2 | 13.6 | 69 | 56,724 | 0.36 | 0 | 2.09 | 7.43 | 51.44 | 0 | 1.43 | 3.1 | 5 |
| 06:18 | 2 | 13.5 | 69 | 56,722 | 0.38 | 0 | 2.27 | 9.01 | 49.52 | 0 | 1.43 | 3.1 | 5 |
| 06:12 | 2 | 13.5 | 69 | 56,765 | 0.37 | 0 | 2.07 | 8 | 50.53 | 0 | 1.43 | 2.13 | 4.36 |
| 06:11 | 2 | 13.6 | 69 | 56,776 | 0.37 | 0 | 2.04 | 7.38 | 50.44 | 0 | 2.14 | 4.08 | 6.26 |
| 06:10 | 2 | 13.5 | 69 | 56,783 | 0.37 | 0 | 2.12 | 7.44 | 50.84 | 0 | 2.14 | 3.59 | 6.26 |
| 06:09 | 2 | 13.5 | 69 | 56,796 | 0.37 | 0 | 2.37 | 7.62 | 50.21 | 0 | 0.71 | 2.62 | 5 |
| 06:08 | 2 | 13.6 | 69 | 56,813 | 0.36 | 0 | 2.44 | 7.56 | 50.78 | 0 | 1.43 | 3.11 | 5 |
| 06:07 | 2 | 13.6 | 69 | 56,834 | 0.36 | 0 | 2.36 | 7.57 | 50.95 | 0 | 0.71 | 2.14 | 4.99 |
| 06:06 | 2 | 13.6 | 69 | 56,856 | 0.37 | 0 | 2.52 | 7.57 | 51.12 | 0 | 0.71 | 3.6 | 5.63 |
| 06:05 | 2 | 13.6 | 69 | 56,878 | 0.37 | 0 | 3.06 | 7.48 | 51.38 | 0 | 1.43 | 3.11 | 4.99 |
| 06:04 | 2 | 13.6 | 69 | 56,895 | 0.37 | 0 | 2.88 | 7.57 | 50.58 | 0 | 0.71 | 3.11 | 4.99 |
| 06:03 | 2 | 13.5 | 69 | 56,908 | 0.37 | 0 | 2.64 | 7.44 | 51.27 | 0 | 2.14 | 3.6 | 5.63 |
| 06:02 | 2 | 13.6 | 69 | 56,921 | 0.37 | 0 | 2.82 | 7.48 | 51.18 | 0 | 0.71 | 2.63 | 5.63 |
| 06:01 | 2 | 13.6 | 69 | 56,931 | 0.37 | 0 | 2.77 | 7.22 | 51.65 | 0 | 1.43 | 2.63 | 4.36 |
| 06:00 | 2 | 13.5 | 69 | 56,945 | 0.39 | 0 | 2.45 | 7.39 | 50.1 | 0 | 1.43 | 3.6 | 6.9 |
| 05:59 | 2 | 13.5 | 69 | 56,947 | 0.38 | 0 | 2.51 | 7.29 | 52.62 | 0 | 0.71 | 2.14 | 4.36 |